1502172000.42,46065,20.38,74398.5,15.31,-25.55,-28.91,0,*4F
1502172001.65,46066,20.38,74396.8,15.31,-25.39,-28.79,0,*40
1502172002.88,46067,20.38,74400.5,15.31,-24.61,-28.05,0,*46
1502172004.08,46068,20.38,74396.3,15.31,-24.61,-27.93,0,*49
1502172005.36,46069,20.38,74398.3,15.33,-24.87,-28.25,0,*40
1502172006.59,46070,20.38,74396.5,15.33,-24.31,-27.77,0,*4D
1502172007.88,46071,20.38,74396.8,15.33,-24.71,-28.05,0,*42
1502172009.14,46072,20.38,74400.3,15.33,-24.41,-27.71,0,*4E
1502172010.41,46073,20.38,74394.3,15.33,-23.95,-27.23,0,*46
1502172011.63,46074,20.38,74398.0,15.35,-24.51,-27.89,0,*48
1502172012.84,46075,20.38,74396.8,15.35,-24.35,-27.71,0,*4C
1502172014.11,46076,20.38,74396.0,15.37,-25.03,-28.59,0,*4C
1502172015.34,46077,20.38,74396.5,15.35,-25.35,-28.91,0,*4E
1502172016.56,46078,20.38,74394.3,15.35,-25.19,-28.75,0,*45
1502172017.79,46079,20.38,74396.0,15.35,-26.07,-29.73,0,*4F
1502172019.04,46080,20.38,74400.8,15.35,-25.81,-29.29,0,*4B
1502172020.26,46081,20.38,74398.5,15.35,-25.23,-28.75,0,*4A
1502172021.47,46082,20.38,74396.0,15.35,-24.51,-27.89,0,*41
1502172022.71,46083,20.38,74398.5,15.35,-24.51,-28.05,0,*4B
1502172023.96,46084,20.38,74402.0,15.37,-24.57,-27.83,0,*49
1502172025.2,46085,20.38,74400.0,15.37,-24.35,-27.67,0,*46
1502172026.44,46086,20.38,74396.8,15.35,-24.71,-28.15,0,*4D
1502172027.67,46087,20.38,74398.5,15.35,-25.03,-28.37,0,*48
1502172028.9,46088,20.38,74398.0,15.37,-25.39,-28.85,0,*45
1502172030.12,46089,20.38,74398.5,15.35,-25.81,-29.23,0,*48
1502172031.34,46090,20.38,74400.8,15.35,-24.93,-28.43,0,*45
1502172032.61,46091,20.38,74402.0,15.37,-25.81,-29.29,0,*49
1502172033.83,46092,20.38,74398.3,15.35,-25.35,-28.75,0,*4F
1502172035.06,46093,20.38,74398.0,15.35,-25.23,-28.59,0,*47
1502172036.27,46094,20.38,74398.0,15.35,-24.51,-27.89,0,*46
1502172037.51,46095,20.38,74396.3,15.35,-24.67,-28.15,0,*48
1502172038.71,46096,20.38,74400.3,15.35,-25.23,-28.69,0,*41
1502172039.96,46097,20.38,74398.0,15.37,-25.49,-28.91,0,*49
1502172041.19,46098,20.38,74398.5,15.35,-25.09,-28.59,0,*44
1502172042.44,46099,20.38,74398.5,15.35,-24.87,-28.43,0,*49
1502172043.68,46100,20.38,74400.3,15.35,-24.51,-27.83,0,*40
1502172044.94,46101,20.38,74394.3,15.35,-24.67,-27.99,0,*4F
1502172046.21,46102,20.38,74394.5,15.37,-25.03,-28.43,0,*45
1502172047.45,46103,20.38,74396.3,15.37,-25.23,-28.75,0,*43
1502172048.73,46104,20.38,74398.0,15.37,-24.67,-27.99,0,*48
1502172050.0,46105,20.38,74396.5,15.37,-24.71,-28.15,0,*45
1502172051.2,46106,20.38,74398.0,15.39,-24.47,-27.93,0,*4C
1502172052.44,46107,20.38,74398.5,15.39,-24.83,-28.31,0,*42
1502172053.67,46108,20.38,74398.0,15.39,-24.67,-28.15,0,*41
1502172054.87,46109,20.38,74398.0,15.39,-24.77,-28.15,0,*41
1502172056.07,46110,20.38,74400.5,15.39,-24.97,-28.37,0,*47
1502172057.29,46111,20.38,74398.0,15.39,-25.03,-28.53,0,*48
1502172058.49,46112,20.38,74398.8,15.39,-25.35,-28.85,0,*45
1502172059.74,46113,20.38,74398.5,15.39,-25.29,-28.63,0,*41
1502172060.96,46114,20.38,74398.5,15.39,-24.97,-28.47,0,*44
1502172062.19,46115,20.38,74400.8,15.39,-25.03,-28.53,0,*4C
1502172063.41,46116,20.38,74398.3,15.39,-25.29,-28.69,0,*4E
1502172064.63,46117,20.38,74398.8,15.39,-25.19,-28.63,0,*46
1502172065.85,46118,20.38,74398.5,15.39,-25.35,-28.79,0,*4C
1502172067.07,46119,20.38,74396.8,15.39,-25.13,-28.47,0,*44
1502172068.29,46120,20.38,74402.8,15.39,-24.87,-28.37,0,*45
1502172069.52,46121,20.38,74396.0,15.39,-24.87,-28.31,0,*42
1502172070.71,46122,20.38,74396.5,15.43,-25.39,-29.07,0,*4C
1502172071.96,46123,20.38,74396.0,15.39,-25.81,-29.39,0,*4E
1502172073.15,46124,20.38,74398.0,15.39,-25.19,-28.53,0,*45
1502172074.38,46125,20.38,74398.3,15.39,-24.35,-27.83,0,*49
1502172075.57,46126,20.38,74398.5,15.39,-25.35,-28.97,0,*41
1502172076.82,46127,20.38,74398.3,15.39,-25.81,-29.39,0,*4A
1502172078.03,46128,20.38,74396.8,15.39,-24.77,-28.31,0,*44
1502172079.26,46129,20.38,74398.0,15.39,-24.67,-28.15,0,*42
1502172080.46,46130,20.38,74400.3,15.39,-24.47,-27.93,0,*49
1502172081.66,46131,20.38,74398.5,15.43,-23.79,-27.13,0,*47
1502172082.9,46132,20.38,74400.3,15.43,-23.95,-27.29,0,*4F
1502172084.1,46133,20.38,74398.0,15.39,-24.47,-27.93,0,*4A
1502172085.36,46134,20.38,74396.5,15.45,-24.25,-27.51,0,*4C
1502172086.63,46135,20.38,74398.8,15.45,-25.03,-28.43,0,*44
1502172087.91,46136,20.31,74396.3,15.45,-24.67,-28.25,0,*44
1502172089.16,46137,20.38,74398.8,15.45,-23.89,-27.23,0,*4B
1502172090.39,46138,20.38,74398.0,15.47,-24.11,-27.51,0,*45
1502172091.61,46139,20.38,74402.3,15.49,-24.97,-28.47,0,*4C
1502172092.85,46140,20.31,74398.3,15.47,-24.77,-28.25,0,*46
1502172094.06,46141,20.38,74400.3,15.47,-24.35,-27.67,0,*48
1502172095.31,46142,20.31,74398.0,15.45,-24.57,-28.05,0,*46
1502172096.52,46143,20.31,74398.5,15.49,-24.47,-27.77,0,*40
1502172097.73,46144,20.31,74398.8,15.49,-24.31,-27.67,0,*47
1502172098.94,46145,20.31,74396.0,15.49,-24.61,-27.93,0,*48
1502172100.2,46146,20.38,74402.8,15.51,-24.51,-27.99,0,*4B
1502172101.46,46147,20.38,74400.5,15.51,-24.61,-28.21,0,*45
1502172102.72,46148,20.31,74400.0,15.51,-24.71,-28.37,0,*4C
1502172103.95,46149,20.31,74398.8,15.49,-25.45,-28.85,0,*4B
1502172105.16,46150,20.31,74396.5,15.49,-24.31,-27.67,0,*42
1502172106.42,46151,20.31,74398.8,15.51,-24.35,-27.83,0,*44
1502172107.64,46152,20.38,74398.3,15.49,-25.35,-29.01,0,*4B
1502172108.86,46153,20.31,74396.5,15.49,-24.97,-28.47,0,*40
1502172110.06,46154,20.31,74396.8,15.49,-25.61,-29.07,0,*4A
1502172111.29,46155,20.31,74396.3,15.49,-26.13,-29.67,0,*4B
1502172112.51,46156,20.31,74396.0,15.49,-25.45,-29.07,0,*4E
1502172113.72,46157,20.31,74396.3,15.47,-24.93,-28.43,0,*4A
1502172114.95,46158,20.31,74398.5,15.47,-25.09,-28.59,0,*4C
1502172116.2,46159,20.38,74398.5,15.47,-24.67,-28.05,0,*4D
1502172117.44,46160,20.31,74398.0,15.47,-24.77,-28.05,0,*46
1502172118.63,46161,20.31,74394.8,15.47,-25.23,-28.69,0,*4D
1502172119.88,46162,20.31,74394.5,15.49,-25.29,-28.79,0,*4B
1502172121.13,46163,20.31,74398.5,15.47,-24.67,-28.05,0,*44
1502172122.33,46164,20.31,74398.8,15.47,-24.77,-28.37,0,*43
1502172123.53,46165,20.31,74398.3,15.47,-24.93,-28.37,0,*48
1502172124.78,46166,20.31,74398.8,15.51,-25.19,-28.63,0,*4E
1502172125.99,46167,20.38,74402.0,15.49,-24.47,-27.93,0,*4C
1502172127.23,46168,20.31,74398.5,15.51,-24.05,-27.29,0,*4D
1502172128.46,46169,20.31,74398.3,15.49,-24.35,-27.83,0,*46
1502172129.72,46170,20.31,74400.5,15.51,-24.31,-27.61,0,*4F
1502172130.97,46171,20.31,74402.3,15.51,-23.69,-27.13,0,*41
1502172132.23,46172,20.31,74398.8,15.51,-24.67,-28.15,0,*42
1502172133.48,46173,20.31,74398.5,15.51,-24.97,-28.47,0,*4B
1502172134.77,46174,20.31,74402.0,15.51,-24.71,-28.21,0,*44
1502172136.03,46175,20.31,74398.8,15.49,-24.87,-28.21,0,*45
1502172137.28,46176,20.31,74400.0,15.51,-25.29,-28.69,0,*46
1502172138.5,46177,20.31,74400.8,15.51,-25.19,-28.69,0,*44
1502172139.76,46178,20.31,74400.8,15.51,-24.87,-28.31,0,*40
1502172141.02,46179,20.31,74400.5,15.49,-24.83,-28.21,0,*4D
1502172142.25,46180,20.31,74402.8,15.51,-25.19,-28.85,0,*4E
1502172143.45,46181,20.31,74402.8,15.49,-25.13,-28.53,0,*47
1502172144.65,46182,20.31,74402.5,15.53,-26.39,-29.95,0,*4F
1502172145.9,46183,20.31,74396.5,15.51,-25.65,-29.17,0,*4C
1502172147.18,46184,20.31,74398.5,15.51,-25.03,-28.47,0,*4F
1502172148.41,46185,20.31,74400.8,15.51,-24.97,-28.37,0,*45
1502172149.64,46186,20.31,74400.3,15.49,-24.83,-28.15,0,*4A
1502172150.94,46187,20.31,74402.0,15.51,-24.71,-28.21,0,*48
1502172152.19,46188,20.31,74402.5,15.51,-25.35,-29.01,0,*45
1502172153.47,46189,20.31,74396.3,15.51,-25.81,-29.51,0,*4E
1502172154.7,46190,20.31,74396.8,15.53,-24.77,-28.25,0,*4E
1502172155.96,46191,20.31,74400.8,15.51,-24.47,-27.83,0,*4D
1502172157.19,46192,20.31,74398.8,15.49,-25.13,-28.63,0,*46
1502172158.4,46193,20.31,74396.8,15.49,-25.13,-28.53,0,*44
1502172159.59,46194,20.31,74400.8,15.49,-25.19,-28.69,0,*40
1502172160.85,46195,20.31,74402.5,15.51,-24.97,-28.47,0,*43
1502172162.08,46196,20.31,74402.0,15.51,-24.47,-27.77,0,*41
1502172163.3,46197,20.31,74396.3,15.51,-25.35,-28.97,0,*45
1502172164.55,46198,20.31,74398.5,15.49,-25.75,-29.17,0,*4E
1502172165.78,46199,20.31,74402.5,15.49,-25.87,-29.39,0,*4E
1502172167.01,46200,20.31,74402.5,15.49,-26.29,-29.57,0,*42
1502172168.22,46201,20.31,74396.3,15.49,-25.45,-28.97,0,*47
1502172169.47,46202,20.31,74400.5,15.47,-25.81,-29.29,0,*46
1502172170.73,46203,20.31,74400.0,15.45,-24.41,-27.89,0,*4C
1502172171.95,46204,20.31,74402.8,15.45,-25.49,-28.85,0,*41
1502172173.18,46205,20.31,74402.0,15.47,-25.39,-29.01,0,*48
1502172174.4,46206,20.31,74402.0,15.47,-25.23,-28.91,0,*48
1502172175.65,46207,20.31,74404.3,15.47,-25.03,-28.43,0,*44
1502172176.87,46208,20.31,74402.0,15.47,-25.35,-28.75,0,*4B
1502172178.1,46209,20.31,74400.3,15.49,-25.03,-28.37,0,*47
1502172179.29,46210,20.31,74402.0,15.47,-25.19,-28.53,0,*48
1502172180.49,46211,20.31,74400.0,15.47,-25.09,-28.53,0,*48
1502172181.69,46212,20.31,74402.3,15.47,-25.19,-28.69,0,*43
1502172182.94,46213,20.31,74400.5,15.45,-24.67,-27.89,0,*49
1502172184.18,46214,20.31,74400.3,15.49,-24.71,-28.15,0,*4F
1502172185.41,46215,20.31,74400.8,15.47,-24.77,-28.43,0,*45
1502172186.62,46216,20.31,74400.3,15.47,-24.35,-27.71,0,*4E
1502172187.85,46217,20.31,74400.8,15.47,-24.21,-27.51,0,*48
1502172189.11,46218,20.31,74400.0,15.51,-24.05,-27.35,0,*44
1502172190.35,46219,20.31,74402.0,15.49,-24.83,-28.31,0,*49
1502172191.55,46220,20.31,74400.3,15.49,-24.97,-28.37,0,*40
1502172192.78,46221,20.31,74400.3,15.49,-24.87,-28.31,0,*46
1502172193.98,46222,20.31,74400.5,15.49,-25.19,-28.69,0,*4E
1502172195.23,46223,20.31,74396.8,15.49,-25.97,-29.35,0,*41
1502172196.46,46224,20.31,74400.5,15.51,-25.49,-29.07,0,*4D
1502172197.66,46225,20.31,74400.8,15.49,-25.35,-28.85,0,*45
1502172198.9,46226,20.31,74396.3,15.49,-25.29,-28.79,0,*48
1502172200.16,46227,20.31,74402.0,15.49,-24.67,-28.21,0,*4F
1502172201.4,46228,20.31,74402.8,15.49,-24.71,-28.31,0,*46
1502172202.66,46229,20.31,74398.0,15.49,-24.87,-28.21,0,*4F
1502172203.92,46230,20.31,74398.3,15.51,-24.71,-28.37,0,*40
1502172205.13,46231,20.31,74400.5,15.49,-24.47,-27.77,0,*46
1502172206.36,46232,20.31,74402.3,15.49,-24.87,-28.37,0,*42
1502172207.61,46233,20.31,74400.5,15.49,-24.67,-28.21,0,*4A
1502172208.88,46234,20.31,74398.3,15.51,-24.47,-27.83,0,*41
1502172210.11,46235,20.31,74400.5,15.49,-24.51,-27.99,0,*45
1502172211.36,46236,20.31,74402.3,15.49,-25.29,-28.79,0,*49
1502172212.58,46237,20.31,74400.3,15.49,-25.61,-29.01,0,*4A
1502172213.8,46238,20.31,74402.8,15.49,-25.75,-29.23,0,*40
1502172215.03,46239,20.31,74400.0,15.49,-25.75,-29.23,0,*41
1502172216.25,46240,20.31,74398.8,15.47,-25.87,-29.29,0,*46
1502172217.46,46241,20.31,74396.8,15.47,-25.23,-28.75,0,*41
1502172218.66,46242,20.31,74400.8,15.47,-25.19,-28.69,0,*46
1502172219.91,46243,20.31,74400.5,15.45,-25.03,-28.37,0,*45
1502172221.14,46244,20.31,74396.3,15.47,-25.71,-29.23,0,*41
1502172222.36,46245,20.31,74400.3,15.47,-25.39,-28.91,0,*44
1502172223.61,46246,20.31,74400.8,15.47,-25.81,-29.29,0,*46
1502172224.86,46247,20.31,74400.0,15.45,-25.03,-28.53,0,*43
1502172226.13,46248,20.31,74400.8,15.45,-25.03,-28.43,0,*4D
1502172227.33,46249,20.31,74402.8,15.47,-25.09,-28.53,0,*45
1502172228.58,46250,20.31,74402.3,15.45,-25.39,-29.01,0,*4A
1502172229.77,46251,20.31,74402.5,15.47,-25.49,-29.07,0,*48
1502172231.02,46252,20.31,74400.0,15.45,-25.35,-29.01,0,*44
1502172232.26,46253,20.31,74400.0,15.45,-25.35,-28.91,0,*4D
1502172233.51,46254,20.31,74400.8,15.45,-26.07,-29.73,0,*45
1502172234.73,46255,20.31,74400.5,15.45,-26.23,-29.95,0,*4A
1502172235.95,46256,20.31,74398.5,15.43,-24.93,-28.59,0,*47
1502172237.17,46257,20.31,74400.0,15.43,-25.61,-29.13,0,*45
1502172238.43,46258,20.31,74400.8,15.43,-25.55,-29.35,0,*49
1502172239.67,46259,20.31,74402.5,15.43,-25.45,-29.13,0,*4D
1502172240.9,46260,20.31,74402.8,15.43,-24.41,-27.71,0,*48
1502172242.13,46261,20.31,74400.3,15.43,-24.77,-28.43,0,*42
1502172243.38,46262,20.31,74400.0,15.45,-25.81,-29.45,0,*48
1502172244.63,46263,20.25,74396.5,15.45,-25.71,-29.23,0,*46
1502172245.86,46264,20.25,74398.5,15.43,-26.39,-30.01,0,*40
1502172247.09,46265,20.25,74400.3,15.39,-26.77,-30.27,0,*42
1502172248.32,46266,20.31,74400.0,15.39,-26.49,-30.17,0,*4F
1502172249.54,46267,20.25,74400.5,15.39,-25.65,-29.17,0,*4B
1502172250.79,46268,20.31,74400.8,15.37,-25.87,-29.39,0,*4A
1502172252.01,46269,20.31,74400.0,15.37,-26.49,-30.11,0,*48
1502172253.26,46270,20.25,74398.8,15.37,-26.07,-29.73,0,*46
1502172254.49,46271,20.31,74400.0,15.35,-25.87,-29.39,0,*40
1502172255.73,46272,20.25,74398.3,15.35,-24.51,-27.83,0,*46
1502172256.98,46273,20.31,74402.8,15.37,-24.57,-27.99,0,*48
1502172258.24,46274,20.31,74400.5,15.37,-24.51,-27.99,0,*49
1502172259.48,46275,20.25,74396.0,15.37,-24.93,-28.43,0,*4E
1502172260.69,46276,20.25,74400.0,15.39,-24.51,-27.93,0,*4F
1502172261.89,46277,20.25,74400.8,15.39,-24.77,-28.31,0,*4D
1502172263.11,46278,20.25,74398.3,15.39,-25.65,-29.13,0,*41
1502172264.33,46279,20.25,74396.8,15.43,-24.97,-28.43,0,*45
1502172265.55,46280,20.25,74396.5,15.43,-25.23,-28.75,0,*48
1502172266.77,46281,20.25,74398.5,15.39,-25.61,-29.13,0,*43
1502172267.99,46282,20.25,74398.5,15.43,-25.97,-29.61,0,*41
1502172269.22,46283,20.25,74396.5,15.39,-26.49,-30.05,0,*47
1502172270.47,46284,20.25,74400.0,15.37,-26.17,-29.79,0,*46
1502172271.68,46285,20.31,74400.5,15.35,-26.49,-29.95,0,*4C
1502172272.89,46286,20.25,74402.3,15.35,-27.03,-30.67,0,*45
1502172274.12,46287,20.25,74400.0,15.35,-25.09,-28.59,0,*48
1502172275.33,46288,20.25,74400.3,15.35,-24.57,-28.15,0,*45
1502172276.56,46289,20.25,74396.8,15.37,-25.19,-28.85,0,*44
1502172277.78,46290,20.31,74400.0,15.35,-25.09,-28.75,0,*40
1502172279.03,46291,20.25,74398.0,15.37,-25.03,-28.53,0,*4D
1502172280.26,46292,20.25,74398.5,15.35,-24.35,-27.83,0,*4A
1502172281.5,46293,20.25,74402.0,15.35,-24.51,-27.99,0,*42
1502172282.73,46294,20.25,74400.0,15.35,-25.65,-29.17,0,*4B
1502172283.93,46295,20.25,74400.3,15.35,-26.07,-29.61,0,*4C
1502172285.13,46296,20.25,74400.0,15.39,-25.65,-29.23,0,*42
1502172286.41,46297,20.25,74400.0,15.37,-24.67,-28.21,0,*4D
1502172287.64,46298,20.25,74398.8,15.35,-25.49,-29.01,0,*4E
1502172288.85,46299,20.25,74396.8,15.35,-26.65,-30.27,0,*4E
1502172290.05,46300,20.25,74396.5,15.35,-25.35,-28.85,0,*48
1502172291.31,46301,20.25,74396.5,15.35,-24.67,-28.21,0,*41
1502172292.57,46302,20.25,74398.8,15.35,-24.87,-28.43,0,*48
1502172293.77,46303,20.25,74396.8,15.35,-25.23,-28.85,0,*4C
1502172295.04,46304,20.25,74398.8,15.37,-24.87,-28.43,0,*4C
1502172296.28,46305,20.25,74398.5,15.37,-25.19,-28.75,0,*4E
1502172297.51,46306,20.25,74400.0,15.37,-25.87,-29.57,0,*4B
1502172298.73,46307,20.25,74396.5,15.37,-25.09,-28.69,0,*40
1502172299.98,46308,20.25,74400.8,15.37,-25.23,-28.59,0,*44
1502172301.22,46309,20.25,74400.0,15.37,-25.19,-28.75,0,*42
1502172302.47,46310,20.25,74402.5,15.37,-25.19,-28.59,0,*44
1502172303.72,46311,20.25,74402.3,15.35,-24.83,-28.43,0,*4E
1502172304.95,46312,20.25,74398.5,15.35,-25.35,-28.91,0,*4E
1502172306.17,46313,20.25,74398.5,15.35,-25.09,-28.75,0,*4A
1502172307.45,46314,20.25,74398.3,15.37,-25.55,-29.17,0,*43
1502172308.67,46315,20.25,74396.8,15.35,-25.35,-29.01,0,*41
1502172309.88,46316,20.25,74398.0,15.35,-25.09,-28.69,0,*42
1502172311.1,46317,20.25,74396.0,15.37,-25.49,-29.07,0,*4C
1502172312.32,46318,20.25,74400.5,15.37,-25.39,-29.07,0,*44
1502172313.54,46319,20.25,74398.8,15.35,-25.19,-28.59,0,*4F
1502172314.79,46320,20.25,74396.5,15.37,-25.23,-29.01,0,*42
1502172316.01,46321,20.25,74398.5,15.37,-25.23,-28.85,0,*4E
1502172317.23,46322,20.25,74398.8,15.37,-25.49,-29.07,0,*4A
1502172318.49,46323,20.25,74398.8,15.35,-25.71,-29.17,0,*43
1502172319.74,46324,20.25,74398.8,15.35,-24.71,-28.15,0,*46
1502172320.96,46325,20.25,74398.5,15.35,-25.23,-28.75,0,*47
1502172322.19,46326,20.25,74396.8,15.35,-25.97,-29.57,0,*4A
1502172323.39,46327,20.25,74398.0,15.35,-25.49,-29.07,0,*4D
1502172324.62,46328,20.25,74398.8,15.35,-25.23,-28.91,0,*40
1502172325.86,46329,20.25,74402.8,15.37,-25.65,-29.29,0,*43
1502172327.1,46330,20.25,74398.5,15.33,-25.23,-28.75,0,*45
1502172328.33,46331,20.25,74398.8,15.35,-25.35,-29.01,0,*47
1502172329.58,46332,20.25,74396.8,15.37,-25.03,-28.53,0,*45
1502172330.8,46333,20.25,74396.5,15.35,-25.23,-28.91,0,*4A
1502172332.04,46334,20.25,74396.5,15.35,-25.49,-29.01,0,*49
1502172333.3,46335,20.25,74398.0,15.35,-24.71,-28.05,0,*47
1502172334.54,46336,20.25,74396.0,15.37,-24.35,-27.67,0,*4D
1502172335.79,46337,20.25,74400.5,15.37,-25.03,-28.53,0,*40
1502172337.04,46338,20.25,74396.8,15.37,-24.87,-28.37,0,*40
1502172338.28,46339,20.25,74400.5,15.37,-25.39,-29.01,0,*41
1502172339.51,46340,20.25,74402.0,15.35,-25.35,-28.91,0,*49
1502172340.73,46341,20.25,74400.3,15.37,-25.87,-29.23,0,*4B
1502172341.98,46342,20.25,74396.5,15.37,-26.07,-29.73,0,*46
1502172343.21,46343,20.25,74398.0,15.35,-26.17,-29.79,0,*4E
1502172344.43,46344,20.25,74402.3,15.37,-26.49,-30.11,0,*46
1502172345.71,46345,20.25,74400.0,15.33,-25.75,-29.35,0,*41
1502172346.96,46346,20.25,74398.5,15.33,-25.55,-29.23,0,*47
1502172348.19,46347,20.25,74400.5,15.31,-25.71,-29.23,0,*42
1502172349.44,46348,20.25,74398.5,15.33,-25.09,-28.59,0,*4C
1502172350.72,46349,20.25,74400.0,15.33,-25.75,-29.35,0,*4D
1502172351.95,46350,20.25,74402.8,15.33,-26.03,-29.45,0,*40
1502172353.18,46351,20.25,74398.8,15.31,-25.91,-29.35,0,*4C
1502172354.41,46352,20.25,74402.8,15.31,-25.09,-28.59,0,*45
1502172355.62,46353,20.25,74400.0,15.31,-25.45,-29.07,0,*46
1502172356.88,46354,20.25,74398.0,15.31,-25.75,-29.35,0,*43
1502172358.13,46355,20.25,74398.0,15.33,-26.13,-29.67,0,*44
1502172359.39,46356,20.25,74398.0,15.33,-26.45,-30.17,0,*4B
1502172360.61,46357,20.25,74402.8,15.33,-25.61,-29.07,0,*46
1502172361.86,46358,20.25,74398.8,15.29,-26.13,-29.67,0,*42
1502172363.11,46359,20.25,74400.5,15.29,-26.45,-30.01,0,*48
1502172364.37,46360,20.25,74400.0,15.29,-26.93,-30.45,0,*49
1502172365.62,46361,20.25,74404.3,15.29,-26.29,-29.83,0,*4B
1502172366.88,46362,20.25,74400.3,15.29,-25.13,-28.63,0,*4D
1502172368.09,46363,20.25,74398.0,15.27,-25.39,-28.85,0,*42
1502172369.31,46364,20.25,74398.3,15.29,-25.91,-29.57,0,*47
1502172370.51,46365,20.25,74398.8,15.27,-25.19,-28.69,0,*44
1502172371.71,46366,20.25,74400.3,15.27,-25.13,-28.69,0,*4D
1502172372.94,46367,20.25,74402.3,15.29,-25.49,-28.97,0,*4C
1502172374.17,46368,20.25,74396.8,15.27,-25.09,-28.59,0,*4B
1502172375.41,46369,20.25,74402.8,15.29,-25.35,-28.79,0,*49
1502172376.64,46370,20.25,74402.3,15.27,-25.19,-28.59,0,*43
1502172377.92,46371,20.25,74402.0,15.29,-24.67,-27.99,0,*47
1502172379.14,46372,20.25,74402.8,15.29,-24.35,-27.77,0,*43
1502172380.38,46373,20.25,74400.8,15.29,-24.77,-28.15,0,*4F
1502172381.6,46374,20.25,74404.5,15.29,-24.93,-28.31,0,*44
1502172382.8,46375,20.25,74404.0,15.31,-24.57,-27.77,0,*49
1502172384.03,46376,20.25,74400.3,15.31,-24.61,-28.09,0,*49
1502172385.3,46377,20.25,74402.0,15.31,-24.71,-28.05,0,*45
1502172386.53,46378,20.25,74400.8,15.31,-25.09,-28.63,0,*44
1502172387.77,46379,20.25,74402.5,15.31,-24.87,-28.47,0,*44
1502172388.98,46380,20.25,74400.3,15.31,-24.31,-27.77,0,*43
1502172390.23,46381,20.25,74398.5,15.33,-24.15,-27.55,0,*46
1502172391.46,46382,20.25,74402.5,15.31,-25.55,-29.07,0,*4B
1502172392.69,46383,20.19,74398.0,15.31,-24.61,-28.05,0,*4F
1502172393.94,46384,20.25,74400.8,15.33,-24.41,-27.77,0,*42
1502172395.18,46385,20.25,74402.0,15.33,-24.47,-27.93,0,*4F
1502172396.41,46386,20.25,74402.8,15.35,-24.87,-28.37,0,*47
1502172397.66,46387,20.25,74400.3,15.33,-24.41,-27.77,0,*41
1502172398.89,46388,20.25,74402.8,15.35,-24.05,-27.39,0,*42
1502172400.15,46389,20.25,74400.8,15.37,-23.89,-27.35,0,*4E
1502172401.41,46390,20.25,74402.3,15.37,-24.41,-27.67,0,*42
1502172402.62,46391,20.19,74402.0,15.35,-24.35,-27.71,0,*45
1502172403.84,46392,20.25,74404.3,15.37,-25.09,-28.53,0,*45
1502172405.06,46393,20.19,74400.3,15.35,-25.23,-28.75,0,*4A
1502172406.34,46394,20.25,74400.3,15.37,-25.03,-28.59,0,*43
1502172407.59,46395,20.19,74402.0,15.37,-24.57,-28.05,0,*4B
1502172408.88,46396,20.25,74402.5,15.37,-24.71,-28.21,0,*4A
1502172410.13,46397,20.25,74404.5,15.37,-25.09,-28.59,0,*4A
1502172411.4,46398,20.25,74398.5,15.37,-24.71,-28.15,0,*43
1502172412.62,46399,20.25,74402.0,15.37,-25.23,-28.85,0,*4D
1502172413.87,46400,20.25,74400.3,15.37,-25.39,-28.91,0,*44
1502172415.12,46401,20.25,74404.8,15.37,-25.49,-29.01,0,*4A
1502172416.34,46402,20.25,74402.5,15.37,-25.09,-28.53,0,*4B
1502172417.57,46403,20.19,74400.3,15.37,-24.57,-27.89,0,*48
1502172418.83,46404,20.25,74404.0,15.37,-24.25,-27.55,0,*4B
1502172420.11,46405,20.25,74402.3,15.37,-24.83,-28.21,0,*4A
1502172421.31,46406,20.19,74402.0,15.39,-25.19,-28.69,0,*49
1502172422.59,46407,20.19,74402.5,15.37,-24.11,-27.35,0,*49
1502172423.82,46408,20.19,74402.8,15.39,-24.21,-27.51,0,*49
1502172425.05,46409,20.19,74406.0,15.39,-24.35,-27.61,0,*4E
1502172426.28,46410,20.19,74402.8,15.43,-23.79,-26.97,0,*4C
1502172427.48,46411,20.25,74402.3,15.43,-24.61,-27.93,0,*46
1502172428.71,46412,20.19,74404.0,15.43,-24.97,-28.47,0,*4A
1502172429.91,46413,20.19,74404.3,15.43,-24.61,-27.93,0,*44
1502172431.16,46414,20.25,74406.0,15.43,-24.83,-28.09,0,*43
1502172432.39,46415,20.19,74402.8,15.39,-25.97,-29.57,0,*41
1502172433.59,46416,20.19,74402.5,15.39,-25.65,-29.23,0,*4C
1502172434.85,46417,20.19,74406.0,15.43,-24.71,-28.09,0,*4D
1502172436.06,46418,20.19,74400.8,15.43,-24.77,-28.31,0,*4F
1502172437.31,46419,20.19,74406.5,15.39,-25.03,-28.63,0,*46
1502172438.54,46420,20.19,74402.8,15.43,-24.61,-28.09,0,*48
1502172439.79,46421,20.19,74404.8,15.39,-24.67,-28.09,0,*42
1502172441.02,46422,20.19,74402.0,15.43,-23.99,-27.29,0,*47
1502172442.29,46423,20.19,74402.3,15.45,-24.25,-27.67,0,*4A
1502172443.54,46424,20.19,74402.0,15.45,-23.89,-27.35,0,*4B
1502172444.79,46425,20.19,74404.5,15.47,-23.95,-27.35,0,*45
1502172446.06,46426,20.25,74406.3,15.47,-24.25,-27.99,0,*4C
1502172447.29,46427,20.19,74404.8,15.47,-24.57,-28.05,0,*42
1502172448.52,46428,20.19,74404.8,15.47,-24.77,-28.25,0,*4D
1502172449.73,46429,20.19,74406.5,15.47,-24.05,-27.51,0,*45
1502172450.96,46430,20.19,74400.8,15.47,-24.21,-27.55,0,*4F
1502172452.16,46431,20.19,74404.5,15.49,-24.97,-28.53,0,*44
1502172453.39,46432,20.19,74402.8,15.49,-25.13,-28.63,0,*49
1502172454.62,46433,20.19,74402.8,15.49,-25.87,-29.35,0,*47
1502172455.85,46434,20.19,74406.0,15.49,-25.35,-29.01,0,*4E
1502172457.04,46435,20.19,74404.0,15.47,-24.93,-28.53,0,*4A
1502172458.23,46436,20.19,74404.3,15.47,-25.19,-28.69,0,*43
1502172459.46,46437,20.19,74404.3,15.47,-24.11,-27.51,0,*4F
1502172460.7,46438,20.19,74404.8,15.47,-24.05,-27.35,0,*47
1502172461.94,46439,20.19,74408.3,15.49,-24.71,-28.15,0,*46
1502172463.17,46440,20.19,74404.5,15.49,-24.05,-27.35,0,*46
1502172464.41,46441,20.19,74404.0,15.49,-24.61,-27.99,0,*43
1502172465.66,46442,20.19,74406.3,15.49,-23.85,-27.19,0,*45
1502172466.94,46443,20.19,74406.5,15.51,-23.65,-26.97,0,*44
1502172468.16,46444,20.19,74406.5,15.53,-24.15,-27.55,0,*4E
1502172469.43,46445,20.19,74402.5,15.51,-24.51,-27.83,0,*46
1502172470.68,46446,20.19,74404.0,15.51,-24.97,-28.21,0,*48
1502172471.9,46447,20.19,74406.5,15.53,-25.23,-28.79,0,*48
1502172473.18,46448,20.19,74404.0,15.51,-24.67,-28.21,0,*49
1502172474.39,46449,20.19,74404.5,15.49,-24.61,-28.15,0,*40
1502172475.6,46450,20.19,74400.3,15.49,-24.35,-27.77,0,*42
1502172476.86,46451,20.19,74404.0,15.51,-24.51,-27.83,0,*43
1502172478.09,46452,20.19,74402.3,15.51,-24.51,-27.93,0,*41
1502172479.3,46453,20.19,74406.8,15.53,-24.31,-27.77,0,*4E
1502172480.55,46454,20.19,74404.8,15.53,-23.99,-27.39,0,*46
1502172481.81,46455,20.19,74404.0,15.55,-23.75,-27.19,0,*41
1502172483.07,46456,20.19,74406.5,15.55,-24.25,-27.71,0,*4E
1502172484.33,46457,20.19,74404.8,15.55,-24.61,-28.05,0,*43
1502172485.62,46458,20.19,74404.8,15.55,-23.95,-27.35,0,*4C
1502172486.87,46459,20.19,74410.3,15.55,-24.11,-27.51,0,*44
1502172488.13,46460,20.19,74400.3,15.55,-23.79,-27.23,0,*42
1502172489.36,46461,20.19,74406.3,15.57,-24.21,-27.51,0,*4E
1502172490.65,46462,20.19,74406.0,15.59,-23.99,-27.35,0,*45
1502172491.88,46463,20.19,74404.8,15.57,-24.11,-27.51,0,*4F
1502172493.16,46464,20.19,74402.0,15.59,-23.85,-27.23,0,*49